Location: Biltmore Gardens
(41.6070°N, 83.4666°W)
Time: 15:00:32
(UTC+00:00)

COSMOS 2455 - Pass Details

Date: 14 July 2020
Orbit: 898 x 911 km, 67.1° (Epoch: 13 August)

Event Time Altitude Azimuth Distance (km) Brightness Sun altitude
Rises 05:08:21 0° 321° (NW) 3,549 6.8 -26.4°
Reaches altitude 10° 05:11:08 10° 311° (NW) 2,603 5.8 -26.4°
Maximum altitude 05:16:17 30° 252° (WSW) 1,570 3.9 -26.6°
Enters shadow 05:16:26 30° 249° (WSW) 1,571 3.9 -26.6°
